Location: The Rolnick Observatory
(41.1711°N, 73.3275°W)
Time: 21:46:11
(UTC-04:00)

Daily predictions for brighter satellites

Satellite Brightness Start Highest point End
(mag) Time Altitude Azimuth Time Altitude Azimuth Time Altitude Azimuth
Cosmos 2297 Rocket 2.8 20:52:47 10° SSW 20:58:24 66° WNW 21:04:03 10° NNE
NOSS 3-4 (A) 4.1 20:51:31 10° NW 20:58:35 74° WSW 21:06:05 10° SSE
NOSS 3-4 (C) 4.1 20:51:37 10° NW 20:58:41 74° WSW 21:06:12 10° SSE
Cosmos 1842 Rocket 3.9 20:55:03 10° NNW 20:59:26 71° W 21:03:45 10° S
Cosmos 1356 Rocket 4.3 20:57:12 10° SSE 21:00:57 31° E 21:04:45 10° NNE
Cosmos 1605 Rocket 4.2 20:54:49 10° N 21:01:06 80° W 21:07:26 10° S
H-2A R/B 3.8 20:59:52 10° ESE 21:03:26 18° ENE 21:07:03 10° NNE
Cosmos 1741 Rocket 4.1 21:00:56 10° S 21:06:11 66° ESE 21:11:27 10° NNE
Cosmos 1818 3.6 21:03:17 10° NNW 21:08:45 77° ENE 21:14:10 10° SE
YAOGAN 6 2.7 21:05:30 10° SSE 21:09:05 65° ENE 21:12:45 10° N
ATLAS 5 CENTAUR R/B 1.8 21:06:41 10° SSW 21:11:18 89° ESE 21:16:22 10° NE
Cosmos 1726 3.9 21:12:15 10° NNE 21:14:51 18° ENE 21:17:26 10° ESE
RESURS DK-1 3.8 21:13:53 10° N 21:17:26 26° NE 21:20:57 10° ESE
Cosmos 1076 Rocket 3.7 21:14:58 10° S 21:19:12 54° E 21:23:28 10° NNE
Spot 1 4.2 21:16:11 10° S 21:20:16 72° WSW 21:24:30 10° NNW
Cosmos 1802 Rocket 4.3 21:14:57 10° N 21:20:53 49° ENE 21:26:49 10° SSE
Cosmos 1727 Rocket 4.4 21:15:14 10° SSW 21:21:31 71° W 21:27:53 10° N
Cosmos 1408 Rocket 4.2 21:18:41 10° SSE 21:22:36 35° E 21:26:33 10° NNE
Cosmos 2237 Rocket 3.9 21:22:44 10° NW 21:27:26 28° WSW 21:32:09 10° SSW
ERBS 4.3 21:27:22 10° NNW 21:30:03 21° NNE 21:32:45 10° E
Cosmos 1939 Rocket 4.0 21:26:52 10° S 21:30:41 42° W 21:34:34 10° NNW
Cosmos 1340 Rocket 4.1 21:29:10 10° SSW 21:33:00 44° WNW 21:36:55 10° N
Cosmos 2221 2.8 21:28:57 10° NNW 21:33:20 73° W 21:37:42 10° S
CZ-4B DEB 3.7 21:31:46 10° S 21:34:35 41° W 21:37:26 10° NNW
Envisat 4.4 21:31:11 10° SSW 21:35:50 36° W 21:40:32 10° NNW
Cosmos 1603 4.1 21:30:28 10° NNW 21:35:58 50° ENE 21:40:30 15° SE
Meteor 1-29 4.0 21:35:08 10° N 21:38:27 48° WNW 21:41:46 10° SSW
Tiangong 1 1.3 21:36:31 10° W 21:39:18 58° N 21:42:03 10° E
Cosmos 371 Rocket 4.1 21:39:24 10° N 21:43:52 36° ENE 21:47:08 16° ESE
Cosmos 1674 2.9 21:40:08 10° SSW 21:43:53 71° W 21:47:39 10° N
Cosmos 2208 Rocket 4.3 21:39:04 10° NNW 21:44:24 71° WSW 21:49:33 11° S
MetOp-A 4.1 21:40:22 11° SSE 21:45:27 80° ENE 21:50:49 10° NNW
ARGOS 3.3 21:42:43 14° SSE 21:47:23 65° ENE 21:52:45 10° N
Cosmos 2016 Rocket 4.0 21:41:19 10° N 21:47:33 67° E 21:52:56 14° SSE
Okean 3 Rocket 4.5 21:43:28 10° SSW 21:47:51 52° W 21:52:14 10° N
CZ-3B R/B 3.9 21:46:58 10° SW 21:49:58 85° SE 22:00:22 10° NE
SPOT 5 3.1 21:47:02 16° SSE 21:50:51 62° ENE 21:55:54 10° N
Cosmos 1943 4.2 21:45:53 10° N 21:51:01 34° ENE 21:54:57 16° ESE
Lacrosse 5 2.1 21:46:32 10° NW 21:51:35 66° NE 21:55:19 18° ESE
Cosmos 1763 Rocket 4.3 21:47:29 10° N 21:52:12 36° ENE 21:55:27 18° ESE
GPS 2-05 Rocket1 4.5 21:50:10 10° SSW 21:51:24 15° S 21:51:24 15° S
Cosmos 1908 3.9 21:48:44 10° NNW 21:52:32 54° W 21:56:17 10° S
SL-16 R/B 3.2 21:47:19 10° NW 21:52:38 42° WSW 21:57:54 10° S
SPOT 1/Viking Rocket 3.8 21:54:30 18° SE 21:58:07 54° ENE 22:03:09 10° N
Cosmos 1766 Rocket 3.6 21:55:34 10° S 21:59:53 80° W 22:04:15 10° N
KORONAS-FOTON 4.1 21:57:20 10° SSW 22:01:06 66° W 22:04:53 10° N
Cosmos 1242 Rocket 3.8 22:00:27 10° NNW 22:03:58 40° W 22:07:16 11° SSW
Abrixas rocket 3.1 22:00:51 10° NW 22:03:59 43° NNE 22:06:04 18° E
Cosmos 1328 Rocket 3.6 22:01:10 10° N 22:05:28 58° E 22:07:53 24° SSE
USA 245 3.2 22:07:27 24° S 22:09:25 81° WSW 22:13:38 10° NNW
Landsat 7 4.3 22:08:35 23° SE 22:11:12 47° ENE 22:15:46 10° N
Cosmos 1515 Rocket 3.9 22:07:09 10° N 22:11:22 48° E 22:13:24 27° SE
YAOGAN 11 4.2 22:08:20 19° S 22:11:30 79° WSW 22:16:04 10° NNW
Cosmos 2233 Rocket 4.5 22:05:57 10° N 22:11:52 44° ENE 22:15:25 23° SE
Cosmos 1151 Rocket 3.8 22:07:47 10° N 22:11:54 37° ENE 22:13:43 26° SE
H-2A R/B 3.4 22:13:53 20° ESE 22:15:38 26° ENE 22:19:11 10° NNE
Cosmos 1743 Rocket 3.5 22:13:15 22° S 22:15:59 68° E 22:20:17 10° NNE
USA 234 3.2 22:09:27 10° NE 22:16:00 74° SE 22:22:32 10° SW
Cosmos 2228 Rocket 3.1 22:15:00 10° N 22:19:36 78° E 22:22:04 27° SSE
Cosmos 468 Rocket 4.2 22:17:46 10° NNW 22:22:51 64° WSW 22:26:04 22° S
Cosmos 1703 4.2 22:22:24 29° ESE 22:23:10 32° E 22:26:45 10° NNE
SL-08 RB Rocket 3.9 22:21:53 22° S 22:24:48 67° WSW 22:29:24 10° NNW
Terra 2.3 22:24:00 28° SE 22:26:09 46° ENE 22:30:42 10° N
ERS-1 Rocket 4.4 22:22:03 10° SSW 22:26:32 32° W 22:31:04 10° NNW
Meteor 1-11 4.3 22:23:46 22° S 22:27:30 62° E 22:33:14 10° NNE
Nimbus 7 Rocket 4.5 22:25:46 10° NNE 22:31:49 85° WNW 22:37:30 11° SSW
H-2A ROCKET BODY 3.8 22:28:41 10° SSW 22:32:54 27° SE 22:45:27 10° E
Cosmos 1503 Rocket 4.4 22:32:17 31° SSE 22:34:07 42° ESE 22:38:58 10° NNE
Cosmos 332 Rocket 4.2 22:29:35 10° NNW 22:34:25 59° WSW 22:37:02 26° S
Cosmos 2123 Rocket 4.4 22:36:04 10° SSW 22:42:09 63° W 22:48:18 10° N
H-2A R/B 2.4 22:39:05 24° S 22:42:16 63° W 22:47:41 10° NNW
Meteor 1-27 4.2 22:37:07 10° N 22:42:57 79° E 22:45:45 32° SSE
Cosmos 1626 2.1 22:44:38 53° SE 22:45:12 62° E 22:48:54 10° NNE
Cosmos 304 Rocket 4.4 22:40:40 10° N 22:45:17 44° ENE 22:46:52 33° ESE
Cosmos 2058 2.8 22:44:53 40° S 22:46:19 79° E 22:50:33 10° N
Cosmos 1726 4.0 22:47:05 10° NNW 22:50:09 25° W 22:52:04 17° SW
CZ-4B R/B 4.1 22:45:25 10° NNE 22:50:21 39° E 22:51:29 35° SE
Cosmos 2263 Rocket 2.1 22:46:58 19° SSW 22:50:59 83° ESE 22:56:36 10° NNE
Cosmos 540 Rocket 4.0 22:46:50 10° N 22:51:48 46° ENE 22:53:35 33° ESE
Cosmos 1300 4.2 22:50:29 10° NNW 22:53:54 31° W 22:55:37 21° SW
RESURS DK-1 3.9 22:51:53 10° NW 22:55:25 27° WSW 22:56:54 22° SW
Spot 4 4.3 22:55:05 36° ESE 22:56:34 48° ENE 23:01:15 10° N
Cosmos 2285 Rocket 4.1 22:52:36 10° NNW 22:58:56 66° ENE 23:01:42 35° SE
Sich 1 4.1 22:59:55 28° E 22:59:55 28° E 23:03:32 10° NNE
ERBS 3.2 23:03:39 10° WNW 23:06:28 38° WSW 23:06:28 38° WSW
deb Chang Zheng 4 3.5 23:04:08 10° NNE 23:08:32 81° ESE 23:09:31 53° S
PSLV R/B 3.9 23:09:22 46° N 23:09:22 46° N 23:11:32 10° N
DELTA 2 DEB (DPAF) 4.4 23:11:06 47° ESE 23:11:54 54° ENE 23:16:16 10° N
Cosmos 2151 3.9 23:10:59 25° SW 23:13:02 43° WNW 23:17:09 10° N
Cosmos 1707 Rocket 4.0 23:09:00 10° N 23:13:21 48° ENE 23:13:54 45° ESE
Tiangong 1 2.9 23:12:11 10° WNW 23:13:24 23° WNW 23:13:24 23° WNW
Cosmos 1354 Rocket 4.1 23:16:06 31° SSW 23:18:41 75° WNW 23:23:56 10° NNE
Cosmos 1844 Rocket 3.4 23:24:43 33° ESE 23:24:46 33° ESE 23:29:42 10° NE
Cosmos 1072 Rocket 4.5 23:19:25 10° N 23:25:47 82° E 23:28:03 43° SSE
Cosmos 1455 2.4 23:23:35 10° NNW 23:27:24 62° W 23:27:33 61° WSW
CZ-4C R/B 2.3 23:28:14 47° SE 23:28:29 47° ESE 23:34:01 10° NE
Cosmos 1666 Rocket 3.6 23:28:28 61° ESE 23:28:41 62° E 23:33:06 10° NNE
Cosmos 1464 Rocket 3.9 23:24:33 10° N 23:30:45 82° E 23:32:45 46° SSE
Lacrosse 5 3.5 23:30:24 10° WNW 23:34:07 21° WSW 23:34:30 21° SW
Cosmos 1943 4.2 23:29:56 10° NW 23:35:01 35° WSW 23:36:46 29° SW
Cosmos 1869 3.2 23:34:08 10° N 23:37:55 78° NNE 23:37:55 78° NNE
Cosmos 1805 Rocket 3.7 23:39:13 56° WSW 23:39:50 63° W 23:44:09 10° N
Cosmos 1633 Rocket 2.9 23:44:55 77° E 23:44:55 77° E 23:49:17 10° N
CZ-4C R/B 3.5 23:46:43 67° WSW 23:46:54 68° W 23:51:17 10° NNW
Cosmos 967 Rocket 4.4 23:41:54 10° NNW 23:48:18 89° WSW 23:50:08 50° SSE
Cosmos 783 Rocket 4.4 23:43:22 10° NNW 23:48:42 90° W 23:49:34 64° SSE
Cosmos 1400 Rocket 3.7 23:49:33 40° ENE 23:49:33 40° ENE 23:52:52 10° NNE
H-2A R/B 3.5 23:51:01 26° WSW 23:51:34 27° W 23:55:12 10° NW
SME Rocket 3.2 23:52:50 59° WSW 23:52:50 59° WSW 23:57:17 10° NNW
